Regional Weather Roundup
Issued by NWS

Home | Current Version | Previous Version | Graphics & Text | Print | Product List | Glossary On
Versions: 1 2 3 4 5 6 7 8 9 10 11 12 13 14 15 16 17 18 19 20 21 22 23 24 25 26 27 28 29 30 31 32 33 34 35 36 37 38 39 40 41 42 43 44 45 46 47 48 49 50
000
ASUS45 KTFX 282304
RWRMT
MONTANA HOURLY WEATHER ROUNDUP
NATIONAL WEATHER SERVICE GREAT FALLS MT
404 PM MST FRI NOV 28 2014

NOTE: "FAIR" INDICATES FEW OR NO CLOUDS BELOW 12000 FEET WITH NO
SIGNIFICANT WEATHER AND/OR OBSTRUCTIONS TO VISIBILITY.

* THESE STATIONS ARE NOT UNDER NWS QUALITY CONTROL. THEY DO NOT
   REPORT WEATHER SUCH AS PRECIPITATION OR FOG.

MTZ001>007-043-290000-
WEST OF THE DIVIDE
CITY           SKY/WX    TMP DP  RH WIND       PRES   REMARKS
KALISPELL      CLOUDY    48  39  71 S15       29.34F
MISSOULA       CLOUDY    48  34  59 E8        29.50S
BUTTE          CLOUDY    45  27  49 S20G30    29.56F
MULLAN PASS    RAIN      34  34 100 SW14G30   29.39F VSB 1    WCI  24
* ESSEX        N/A       39  38  96 W5         N/A   WCI  35
* LINCOLN      N/A       44  35  71 E2G7       N/A
* LOOKOUT PASS N/A       39  37  93 SE12G20    N/A   WCI  32
* POLSON       N/A       45  38  77 S4G15      N/A
* RONAN APT    CLOUDY    48  37  66 SE10       N/A
* SEELEY LAKE  N/A       42  35  76 S2         N/A
* THOMP F APT  CLOUDY    46  21  37 SE9G15     N/A
* YAAK HILL    N/A       46  43  89 NE1        N/A
$$

MTZ008-052>055-290000-
SOUTHWEST MONTANA
CITY           SKY/WX    TMP DP  RH WIND       PRES   REMARKS
BOZEMAN        CLOUDY    46  32  58 E8        29.52F
DILLON         PTSUNNY   52  19  27 SW32G41   29.55F
* W YELLOWSTON PTSUNNY   42  23  47 SW7G15     N/A
* ENNIS APT    PTSUNNY   48  21  34 SE28G38    N/A
* THREE FORKS  CLOUDY    54  45  72 N/A        N/A
* BOULDER HILL N/A       46  23  40 S20G27     N/A
* MONIDA PASS  N/A       41  19  41 E13G19     N/A
* RAYNOLDS PAS N/A       42  27  55 S23G37     N/A
* WHITEHALL    N/A       54  26  34 SW6G16     N/A
* WISE RIVER   N/A       41  31  68 W11G17     N/A
$$

MTZ009>010-012-014-046-048-049-054-290000-
EAST SLOPES AND CENTRAL MONTANA
CITY           SKY/WX    TMP DP  RH WIND       PRES   REMARKS
CUT BANK       N/A        1  -4  79 N25G30    29.53R WCI -23
GREAT FALLS    CLOUDY    21  18  88 NE18      29.45R WCI   6
HELENA         CLOUDY    54  28  37 W8        29.47F
MALMSTROM AFB  CLOUDY    21  19  92 N18G26    29.49R WCI   6
* DEARBORN     N/A       54  30  40 S9G22      N/A
* EAST GLACIER N/A        2  -2  83 E13        N/A   WCI -16
* PENDROY      N/A        6   5  96 VRB19G26    N/A   WCI -14
* ROGERS PASS  N/A       42  31  65 E10G18     N/A
* SAINT MARY   N/A       -1  -7  75 NE7G16     N/A   WCI -14
* SWEET GRASS  N/A       -3  -6  87 N25G30     N/A   WCI -28
$$

MTZ011-013-016-021-035-040-045-047-050-051-290000-
NORTH CENTRAL MONTANA
CITY           SKY/WX    TMP DP  RH WIND       PRES   REMARKS
HAVRE          CLOUDY     9   3  76 NW15      29.60S WCI  -8
LEWISTOWN      PTSUNNY   55  30  39 SW21      29.43F
* N BAR RANCH  PTCLDY    52  27  38 W17G35    29.45F
* CHESTER      N/A       11   6  80 E8         N/A   WCI  -1
* DENTON       N/A       31  19  61 NW12G20    N/A   WCI  22
* GEYSER       N/A       53  25  34 SW24G31    N/A
* JUDITH GAP   N/A       49  25  39 SW29G42    N/A
* LOMA         N/A       12   7  80 N27G35     N/A   WCI  -9
$$

MTZ017>020-022>027-061-062-290000-
NORTHEAST MONTANA
CITY           SKY/WX    TMP DP  RH WIND       PRES   REMARKS
GLASGOW        FOG       28  25  89 W9        29.43R WCI  19
GLENDIVE       CLOUDY    41  32  70 S12       29.44F
JORDAN         CLOUDY    52  36  55 SW10      29.39S
SIDNEY         CLOUDY    28  27  96 CALM      29.44F
WOLF POINT     CLOUDY    28  25  89 E6        29.41F WCI  21
* BEAVER HILL  N/A       46  32  58 S14        N/A
* CIRCLE       N/A       46  37  71 SW1        N/A
* LINDSAY DVD  N/A       48  33  56 SW17G22    N/A
* NAVAJO       N/A       21  20  96 N4         N/A
* SACO         N/A       30  27  89 NW9G17     N/A   WCI  22
$$

MTZ028>042-056>058-290000-
SOUTHCENTRAL AND SOUTHEAST MONTANA
CITY           SKY/WX    TMP DP  RH WIND       PRES   REMARKS
BAKER          CLOUDY    48  30  50 SW12      29.48F
BILLINGS       PTSUNNY   57  27  32 W14       29.52S
LIVINGSTON     CLOUDY    54  23  30 SW32G43   29.49F
MILES CITY     CLOUDY    46  34  63 SE10      29.44F
* LAUREL APT   PTSUNNY   55  27  34 N/A        N/A
* ALZADA       N/A       51  29  43 N/A        N/A
* HYSHAM       N/A       58  21  24 W4G14      N/A
* LAME DEER    N/A       56  25  30 SW10G16    N/A
* REED POINT   N/A       55  26  33 W16G29     N/A
* ROSCOE HILL  N/A       49  13  23 SW27G44    N/A
$$

REGIONAL REPORTS...DAKOTAS
CITY           SKY/WX    TMP DP  RH WIND       PRES   REMARKS
WILLISTON      PTCLDY    25  19  78 SE3       29.44F
DICKINSON      CLOUDY    37  32  82 S10       29.44F WCI  30
BEACH          SUNNY     41  32  70 SW9       29.45F
CROSBY         SUNNY     14  12  92 SE8       29.47F WCI   3
BISMARCK       PTSUNNY   21  16  81 E10       29.57F WCI  10
GRAND FORKS    CLOUDY    16  10  77 SE10      29.76F WCI   4
FARGO          PTCLDY    18   9  68 E7        29.75F WCI   9
BUFFALO SD     CLOUDY    48  32  54 SW12      29.46F
RAPID CITY     PTCLDY    55  25  31 W10       29.57R
$$

REGIONAL REPORTS...WYOMING/IDAHO/WASHINGTON
CITY           SKY/WX    TMP DP  RH WIND       PRES   REMARKS
GILLETTE       CLOUDY    52  25  35 SW20      29.59F
SHERIDAN       PTCLDY    59  19  21 S9G20     29.56F
CODY           CLOUDY    50  21  32 SW21G32   29.63F
YELLOWSTONE LA CLOUDY    39  16  39 VRB7G18   29.78F WCI  34
SALMON         PTSUNNY  N/A N/A N/A SW28G39   29.53F
MULLAN PASS    RAIN      34  34 100 SW14G30   29.39S VSB 1    WCI  24
SAND POINT     CLOUDY    52  37  57 SW15G28   29.30F
SPOKANE        LGT RAIN  52  39  61 SW23G35   29.33F

$$




USA.gov is the U.S. government's official web portal to all federal, state and local government web resources and services.